This demonstration page uses our WeatherBlox Daily Observations layout. Learn more.

Left ArrowRight Arrow

Hourly Observations for January 1, 2018

Temp ( °F °C ) Dew Point ( °F °C ) Humidity (%) Winds ( mph kmh ) Pressure ( in mb ) Visibility ( mi km ) Precip ( " mm )
12:56 am 00:56 Partly Cloudy -12 -24.4 -16 -26.7 81 81 NW 3 6 30.95 1048 10 16 0.00 0.00
1:56 am 01:56 Cloudy -12 -24.4 -17 -27.2 78 78 W 5 7 30.96 1048 10 16 0.00 0.00
2:56 am 02:56 Clear -10 -23.3 -15 -26.1 78 78 Calm 30.95 1048 10 16 0.00 0.00
3:56 am 03:56 Cloudy -12 -24.4 -16 -26.7 81 81 WNW 5 7 30.95 1048 10 16 0.00 0.00
4:56 am 04:56 Cloudy -9 -22.8 -13 -25 82 82 WNW 3 6 30.94 1048 10 16 0.00 0.00
5:56 am 05:56 Cloudy -7 -21.7 -12 -24.4 79 79 NNW 3 6 30.93 1047 10 16 0.00 0.00
6:56 am 06:56 Mostly Clear -11 -23.9 -16 -26.7 78 78 Calm 30.95 1048 10 16 0.00 0.00
7:56 am 07:56 Partly Cloudy -12 -24.4 -16 -26.7 81 81 Calm 30.95 1048 10 16 0.00 0.00
8:36 am 08:36 Mostly Cloudy -8 -22 -11 -24 84 84 Calm 31.04 1051 10 16 0.00 0.00
8:56 am 08:56 Partly Cloudy -5 -20.6 -10 -23.3 79 79 SSE 3 6 30.94 1048 10 16 0.00 0.00
9:05 am 09:05 Mostly Cloudy -6 -21 -11 -24 77 77 SE 3 6 31.04 1051 10 16 0.00 0.00
9:56 am 09:56 Cloudy -2 -18.9 -8 -22.2 75 75 S 3 6 30.94 1048 10 16 0.00 0.00
10:56 am 10:56 Cloudy with Light Snow 5 -15 -4 -20 66 66 ESE 6 9 30.92 1047 9 14 0.00 0.03
11:28 am 11:28 Partly Cloudy 7 -14 -6 -21 56 56 SE 6 9 30.92 1047 10 16 0.00 0.03
11:54 am 11:54 Partly Cloudy 9 -13 -4 -20 56 56 S 6 9 30.92 1047 10 16 0.00 0.03
11:56 am 11:56 Mostly Sunny 7 -13.9 -4 -20 60 60 S 7 11 30.89 1046 10 16 0.00 0.03
12:56 pm 12:56 Mostly Sunny 8 -13.3 -2 -18.9 63 63 SSW 6 9 30.86 1045 10 16 0.00 0.00
1:56 pm 13:56 Sunny 8 -13.3 -2 -18.9 63 63 S 6 9 30.81 1044 10 16 0.00 0.00
2:56 pm 14:56 Cloudy 7 -13.9 -2 -18.9 66 66 S 8 13 30.80 1043 10 16 0.00 0.00
3:56 pm 15:56 Cloudy 6 -14.4 -2 -18.9 69 69 SSE 9 15 30.79 1043 10 16 0.00 0.00
4:56 pm 16:56 Cloudy 6 -14.4 -1 -18.3 73 73 SE 8 13 30.80 1043 10 16 0.00 0.00
5:56 pm 17:56 Cloudy 5 -15 -2 -18.9 72 72 SE 8 13 30.77 1042 10 16 0.00 0.03
6:56 pm 18:56 Cloudy 4 -15.6 -1 -18.3 80 80 SE 8 13 30.79 1043 10 16 0.00 0.00
7:56 pm 19:56 Clear 1 -17.2 -5 -20.6 75 75 SE 8 13 30.79 1043 10 16 0.00 0.00
8:56 pm 20:56 Clear -2 -18.9 -7 -21.7 79 79 SE 7 11 30.79 1043 10 16 0.00 0.00
9:56 pm 21:56 Clear -3 -19.4 -7 -21.7 82 82 SE 6 9 30.80 1043 10 16 0.00 0.00
10:56 pm 22:56 Clear -5 -20.6 -9 -22.8 83 83 ESE 7 11 30.77 1042 10 16 0.00 0.00
11:56 pm 23:56 Clear -6 -21.1 -10 -23.3 83 83 SSE 7 11 30.77 1042 10 16 0.00 0.00

Powered by AerisWeather